Home   Weather   USA   Norfolk   Past weeks
Flag for USA

Past Weather in Norfolk, Virginia, USA — January 2018

Currently: 35 °F. Passing clouds. (Weather station: Norfolk Naval Air Station, USA). See more current weather

January 2018 Weather in Norfolk — Graph

°F

High & Low Weather Summary for January 2018

 TemperatureHumidityPressure
High73 °F (Jan 12, 12:19 pm)100% (Jan 28, 10:59 am)30.74 "Hg (Jan 28, 10:59 am)
Low13 °F (Jan 7, 5:59 am)24% (Jan 19, 2:59 pm)29.53 "Hg (Jan 13, 12:59 am)
Average38 °F66%30.24 "Hg
* Reported Jan 1 12:59 am — Jan 31 11:59 pm, Norfolk. Weather by CustomWeather, © 2023

Note: Actual official high and low records may vary slightly from our data, if they occured in-between our weather recording intervals... More about our weather records

Norfolk Weather History for January 1, 2018

Scroll right to see more
 ConditionsComfort  
Time TempWeatherWind HumidityBarometerVisibility
12:59 am
Mon, Jan 1
21 °FClear.15 mph52%30.40 "Hg10 mi
1:59 am20 °FClear.17 mph55%30.42 "Hg10 mi
2:59 am20 °FClear.20 mph50%30.42 "Hg10 mi
3:59 am20 °FClear.23 mph52%30.44 "Hg10 mi
4:59 am20 °FClear.16 mph55%30.44 "Hg10 mi
5:59 am19 °FClear.18 mph54%30.45 "Hg10 mi
6:59 am19 °FClear.16 mph57%30.46 "Hg10 mi
7:59 am19 °FSunny.16 mph57%30.47 "Hg10 mi
8:59 am21 °FSunny.18 mph52%30.50 "Hg10 mi
9:59 am23 °FSunny.15 mph48%30.52 "Hg10 mi
10:59 am24 °FSunny.16 mph44%30.53 "Hg10 mi
11:59 am25 °FSunny.17 mph38%30.50 "Hg10 mi
12:59 pm27 °FSunny.15 mph35%30.47 "Hg10 mi
1:59 pm27 °FPassing clouds.14 mph32%30.45 "Hg10 mi
2:59 pm27 °FSunny.14 mph32%30.44 "Hg10 mi
3:59 pm26 °FSunny.15 mph33%30.45 "Hg10 mi
4:59 pm24 °FClear.16 mph38%30.46 "Hg10 mi
5:59 pm24 °FClear.13 mph36%30.48 "Hg10 mi
6:59 pm23 °FClear.9 mph38%30.50 "Hg10 mi
7:59 pm22 °FClear.5 mph42%30.50 "Hg10 mi
8:59 pm22 °FClear.5 mph42%30.50 "Hg10 mi
9:59 pm22 °FClear.7 mph46%30.50 "Hg10 mi
10:59 pm22 °FClear.10 mph46%30.51 "Hg10 mi
11:59 pm22 °FClear.12 mph44%30.51 "Hg10 mi
Weather by CustomWeather, © 2023

See weather overview